Flag for Czech Republic Weather past 2 weeks in Brno, Czech Republic

Now
58 °F

Low clouds.


Feels Like: 58 °F
Forecast: 56 / 63 °F
Wind: 5 mph from Northwest

Location: Brno / Turany

Current Time: Sep 1, 2014 at 9:55:03 AM

Latest Report: Sep 1, 2014 at 9:00 AM


Visibility: 16 mi

Pressure: 29.89 "Hg

Humidity: 88%

Dew point: 55 °F

Location of BrnoLocation

Historic Weather in Brno — Graph

°F

Brno temperature yesterday

Maximum temperature yesterday: 70 °F (at 3:00 PM)
Minimum temperature yesterday: 57 °F (at 11:00 PM)
Average temperature yesterday: 62 °F

Past Weeks' High & Low Weather Summary

 TemperatureHumidityPressure
High76 °F (Aug 18, 5:00 PM)98% (Aug 31, 4:00 AM)30.14 "Hg (Aug 31, 4:00 AM)
Low44 °F (Aug 25, 6:00 AM)40% (Aug 18, 1:00 PM)29.71 "Hg (Aug 26, 6:00 PM)
Average60 °F78%29.98 "Hg
* Reported Aug 17 8:00 AM — Sep 1 8:00 AM, Brno, Weather by CustomWeather, © 2014

Note: Actual official high and low records may vary slightly from our data, if they occured in-between our weather recording intervals... More about our weather records

Advertising

Brno weather history for previous 24 hours

 ConditionsComfort  
Time TempWeatherWind HumidityBarometerVisibility
8:00 AM
Sep 1
58 °FLight rain. Low clouds.5 mph89%29.89 "Hg7 mi
7:00 AM57 °FLight rain. Overcast.3 mph92%29.89 "Hg6 mi
6:00 AM57 °FLight rain. Overcast.2 mph90%29.88 "Hg7 mi
5:00 AM58 °FOvercast.2 mph87%29.87 "Hg9 mi
4:00 AM58 °FOvercast.1 mph85%29.89 "Hg9 mi
3:00 AM58 °FOvercast.3 mph85%29.88 "Hg12 mi
2:00 AM58 °FOvercast.3 mph94%29.88 "Hg7 mi
1:00 AM58 °FOvercast.2 mph95%29.89 "Hg6 mi
12:00 AM58 °FLight rain. Overcast.No wind95%29.89 "Hg5 mi
11:00 PM
Aug 31
57 °FFog.No wind97%29.88 "Hg5 mi
10:00 PM58 °FLow clouds.2 mph94%29.88 "Hg9 mi
9:00 PM58 °FOvercast.1 mph95%29.88 "Hg12 mi
8:00 PM58 °FLow clouds.1 mph94%29.88 "Hg12 mi
7:00 PM59 °FLow clouds.1 mph92%29.87 "Hg16 mi
6:00 PM59 °FSprinkles. Overcast.3 mph95%29.88 "Hg7 mi
5:00 PM61 °FThundershowers. Overcast.6 mph85%29.89 "Hg4 mi
4:00 PM68 °FOvercast.3 mph71%29.86 "Hg22 mi
3:00 PM70 °FOvercast.6 mph68%29.88 "Hg22 mi
2:00 PM69 °FOvercast.3 mph73%29.90 "Hg19 mi
1:00 PM68 °FOvercast.1 mph77%29.93 "Hg8 mi
12:00 PM63 °FLow clouds.1 mph88%29.97 "Hg7 mi
11:00 AM62 °FFog.1 mph93%29.98 "Hg5 mi
10:00 AM61 °FFog.3 mph97%29.98 "Hg4 mi
9:00 AM60 °FFog.3 mph98%29.99 "Hg3 mi
Weather by CustomWeather, © 2014

See weather overviewHow to use our weather pages